SCD 1 1 22490U 93009B 26120.40196196 .00000469 00000+0 77534-4 0 9993 2 22490 24.9681 142.6148 0041899 352.6918 30.4836 14.46099047754194 TECHSAT 1B (GO-32) 1 25397U 98043D 26120.43948020 .00000063 00000+0 47326-4 0 9995 2 25397 99.0062 111.9975 0001610 35.8621 324.2665 14.24418789444536 SCD 2 1 25504U 98060A 26120.40966316 .00000427 00000+0 68416-4 0 9996 2 25504 24.9969 6.7978 0016655 338.9016 182.2389 14.45507557453409 DLR-TUBSAT 1 25757U 99029B 26120.55224146 .00000103 00000+0 37012-4 0 9995 2 25757 98.6690 114.4919 0015034 131.9657 228.2821 14.52414007426331 TERRA 1 25994U 99068A 26120.64677738 .00000404 00000+0 91252-4 0 9990 2 25994 97.9496 172.0692 0002968 46.8950 117.8594 14.61064311402669 MAROC-TUBSAT 1 27004U 01056D 26120.45951307 -.00000023 00000+0 27520-4 0 9995 2 27004 99.8061 296.4224 0019054 265.0185 113.3836 13.70260450219659 AQUA 1 27424U 02022A 26120.65058168 .00000878 00000+0 18459-3 0 9997 2 27424 98.4249 88.9958 0002089 90.6482 82.9780 14.62082523276329 SHIYAN-1 (SY-1) 1 28220U 04012A 26120.53777399 .00014397 00000+0 46055-3 0 9998 2 28220 97.8704 195.5575 0006096 176.0815 184.0474 15.32522367203792 AURA 1 28376U 04026A 26120.60266645 .00000853 00000+0 18278-3 0 9998 2 28376 98.3388 76.6747 0001711 82.8984 277.2411 14.61253874159261 IRS-P5 (CARTOSAT-1) 1 28649U 05017A 26120.56337893 .00001431 00000+0 15036-3 0 9993 2 28649 97.5343 145.7847 0001280 134.2589 225.8735 14.90924189136729 SINAH 1 1 28893U 05043D 26120.62622330 .00000375 00000+0 80724-4 0 9996 2 28893 98.2787 254.6873 0015607 67.7689 292.5167 14.64124443 93568 RESURS-DK 1 1 29228U 06021A 26120.37152956 .00002575 00000+0 15153-3 0 9997 2 29228 69.9316 103.3075 0003713 334.7087 25.3897 15.13010990 95348 ARIRANG-2 (KOMPSAT-2) 1 29268U 06031A 26120.60009435 .00000038 00000+0 15697-4 0 9997 2 29268 97.8307 307.3494 0013374 220.8113 161.0815 14.64628064 54516 LAPAN-TUBSAT 1 29709U 07001A 26120.57826015 .00000281 00000+0 38792-4 0 9993 2 29709 98.1343 118.7322 0012049 348.0339 12.0587 14.85900692 44080 HAIYANG-1B 1 31113U 07010A 26120.45909063 .00000097 00000+0 52541-4 0 9990 2 31113 98.3478 104.1615 0013274 348.3845 11.7031 14.31014902993807 COSMO-SKYMED 1 1 31598U 07023A 26120.61011247 .00003387 00000+0 30050-3 0 9992 2 31598 97.8867 312.0704 0001765 97.1317 263.0104 14.96869978 22677 TERRASAR-X 1 31698U 07026A 26120.43722174 .00000702 00000+0 36598-4 0 9996 2 31698 97.4450 128.8255 0001929 87.0121 273.1334 15.19153873 45970 WORLDVIEW-1 (WV-1) 1 32060U 07041A 26120.43804380 .00006776 00000+0 27954-3 0 9999 2 32060 97.3890 240.8499 0002201 184.5574 175.5644 15.24370779 35605 YAOGAN-3 1 32289U 07055A 26120.60312983 .00001204 00000+0 12872-3 0 9993 2 32289 97.8197 150.9492 0001336 92.5754 267.5617 14.90594204998774 COSMO-SKYMED 2 1 32376U 07059A 26120.56610814 .00000463 00000+0 64734-4 0 9994 2 32376 97.8884 304.8545 0001397 92.6591 267.4782 14.82163836994941 RADARSAT-2 1 32382U 07061A 26120.59756318 -.00000042 00000+0 56058-6 0 9993 2 32382 98.5791 128.2077 0001243 81.5001 278.6323 14.29983198959155 CARTOSAT-2A 1 32783U 08021A 26120.62715714 .00000653 00000+0 94754-4 0 9994 2 32783 97.7678 170.9511 0010287 266.5559 93.4477 14.79175445971771 HUANJING 1A (HJ-1A) 1 33320U 08041A 26120.62808785 .00000685 00000+0 88565-4 0 9993 2 33320 97.6665 108.3147 0017681 297.8434 62.0989 14.83876181951350 HUANJING 1B (HJ-1B) 1 33321U 08041B 26120.64361352 .00000600 00000+0 79008-4 0 9999 2 33321 97.6505 111.6431 0036125 342.0960 17.8979 14.83229455951362 GEOEYE 1 1 33331U 08042A 26120.53699407 .00000483 00000+0 99712-4 0 9997 2 33331 98.1246 195.0700 0003780 193.0723 167.0383 14.64679812943170 THEOS 1 33396U 08049A 26120.62243855 .00000203 00000+0 11501-3 0 9996 2 33396 98.5611 179.4423 0001305 91.5740 268.5587 14.20126919911211 COSMO-SKYMED 3 1 33412U 08054A 26120.59536855 .00003633 00000+0 24860-3 0 9994 2 33412 97.8351 338.3732 0017464 69.7951 290.5152 15.06649149949771 YAOGAN-4 1 33446U 08061A 26120.53668437 .00001045 00000+0 13466-3 0 9990 2 33446 97.9293 54.4073 0013210 221.9262 138.0941 14.83109383938607 GOSAT (IBUKI) 1 33492U 09002A 26120.54724709 .00000461 00000+0 89854-4 0 9999 2 33492 98.0830 232.2390 0001341 108.5681 251.5670 14.67539629924474 DEIMOS-1 1 35681U 09041A 26120.57098128 .00000534 00000+0 86101-4 0 9999 2 35681 97.7341 279.8782 0001777 40.4643 319.6698 14.75186733899869 DUBAISAT-1 1 35682U 09041B 26120.60530761 .00001206 00000+0 18653-3 0 9991 2 35682 97.9977 254.4055 0009593 217.6660 142.3879 14.75036549898084 OCEANSAT-2 1 35931U 09051A 26120.58977242 -.00000161 00000+0 -84277-4 0 9992 2 35931 98.2301 112.2006 0015819 13.9915 346.1687 13.99648966872676 WORLDVIEW-2 (WV-2) 1 35946U 09055A 26120.56766181 .00000143 00000+0 61649-4 0 9994 2 35946 98.4689 194.6878 0004462 18.8246 341.3105 14.37929959868806 SMOS 1 36036U 09059A 26120.58460222 .00000250 00000+0 93639-4 0 9991 2 36036 98.4433 308.6153 0001202 92.6111 267.5215 14.39747369866609 YAOGAN-7 1 36110U 09069A 26120.63052487 .00000503 00000+0 76747-4 0 9993 2 36110 98.0130 6.7780 0024295 189.5041 170.5713 14.77961568882604 TANDEM-X 1 36605U 10030A 26120.43722077 .00000760 00000+0 39390-4 0 9997 2 36605 97.4450 128.8229 0001595 89.8983 270.2434 15.19154201879395 CARTOSAT-2B 1 36795U 10035A 26120.56402985 .00000921 00000+0 13277-3 0 9993 2 36795 97.9998 171.4079 0010995 352.4973 7.6071 14.78670003852810 YAOGAN-10 1 36834U 10038A 26120.66022355 .00001748 00000+0 21026-3 0 9999 2 36834 97.9016 144.4412 0001432 84.7538 9.7977 14.85202020850155 COSMO-SKYMED 4 1 37216U 10060A 26120.57877853 -.00000096 00000+0 -54901-5 0 9997 2 37216 97.8881 304.8684 0001316 76.6516 283.4844 14.82163627837514 RESOURCESAT-2 1 37387U 11015A 26120.58072731 .00000119 00000+0 74264-4 0 9997 2 37387 98.7664 188.3456 0011906 40.2112 319.9944 14.21600768779414 HAIYANG-2A 1 37781U 11043A 26120.37688590 .00000130 00000+0 18015-3 0 9993 2 37781 99.3404 124.0613 0006928 177.9733 182.1446 13.75755266740088 RASAT 1 37791U 11044D 26120.61401361 .00000412 00000+0 80027-4 0 9997 2 37791 98.0554 212.7432 0020334 347.2129 117.4170 14.68119942786200 SRMSAT 1 37841U 11058D 26120.64063082 .00000431 00000+0 90343-4 0 9998 2 37841 19.9736 347.2598 0011743 41.3226 351.6382 14.11564464751098 PLEIADES 1A 1 38012U 11076F 26120.67234294 .00000418 00000+0 99724-4 0 9994 2 38012 98.1989 196.4102 0001009 83.9450 77.7190 14.58540600765060 ZIYUAN 1-02C (ZY 1-02C) 1 38038U 11079A 26120.64753075 .00000561 00000+0 19901-3 0 9992 2 38038 98.4098 188.9453 0007719 90.2325 74.9231 14.38174863752370 ARIRANG-3 (KOMPSAT-3) 1 38338U 12025B 26120.60958116 .00000465 00000+0 10164-3 0 9991 2 38338 98.1140 78.9024 0003989 263.4854 96.5893 14.62163256744394 EXACTVIEW-1 (ADS-1B) 1 38709U 12039C 26120.28325674 .00000108 00000+0 65909-4 0 9991 2 38709 98.9708 236.6065 0010010 313.2713 46.7629 14.24969814715881 SPOT 6 1 38755U 12047A 26120.51943027 .00000455 00000+0 10790-3 0 9997 2 38755 98.2146 188.3802 0001220 86.7638 273.3700 14.58525353726102 PLEIADES 1B 1 39019U 12068A 26120.53862580 .00000574 00000+0 13330-3 0 9995 2 39019 98.1959 196.2434 0001033 88.9215 271.2103 14.58567154713906 GOKTURK 2 1 39030U 12073A 26120.61088917 .00000422 00000+0 68999-4 0 9991 2 39030 97.6851 320.4214 0002006 99.1318 261.0119 14.75495594717499 LANDSAT 8 1 39084U 13008A 26120.57428828 .00000349 00000+0 87518-4 0 9999 2 39084 98.1849 191.4256 0001235 102.6401 257.4936 14.57135091690960 SARAL 1 39086U 13009A 26120.62568260 .00000112 00000+0 57186-4 0 9999 2 39086 98.5563 307.7940 0002936 75.5916 284.5594 14.32844181688798 GAOFEN-1 1 39150U 13018A 26120.62587120 .00000802 00000+0 12213-3 0 9994 2 39150 97.9115 193.6557 0018337 61.7403 298.5655 14.76522069701225 VNREDSAT 1 1 39160U 13021B 26120.61522988 .00000748 00000+0 14827-3 0 9991 2 39160 97.9123 175.8492 0001258 89.5440 270.5908 14.64957165693326 ARIRANG-5 (KOMPSAT-5) 1 39227U 13042A 26120.61270318 .00001923 00000+0 14164-3 0 9995 2 39227 97.6188 307.9800 0002419 317.0415 43.0622 15.04515428696708 SKYSAT-A 1 39418U 13066C 26120.56818819 .00003293 00000+0 19062-3 0 9995 2 39418 97.3857 171.4819 0023091 117.5746 242.7834 15.12694530681284 DUBAISAT-2 1 39419U 13066D 26120.62347598 .00003570 00000+0 22435-3 0 9990 2 39419 97.4554 112.0311 0010653 186.6564 173.4526 15.09829625679212 GPM-CORE 1 39574U 14009C 26120.56816088 .00007097 00000+0 15611-3 0 9994 2 39574 64.9705 107.7073 0012120 261.2373 98.7395 15.44718793690450 SENTINEL-1A 1 39634U 14016A 26120.57323317 .00000138 00000+0 39025-4 0 9993 2 39634 98.1793 128.7986 0001390 79.8466 280.2890 14.59198399643075 KAZEOSAT 1 1 39731U 14024A 26120.63166469 .00000373 00000+0 12664-3 0 9990 2 39731 98.3223 194.2579 0001479 96.9265 263.2093 14.42061079631703 ALOS-2 1 39766U 14029A 26120.59327502 .00001279 00000+0 17815-3 0 9994 2 39766 97.9210 218.4380 0001693 84.9406 275.1999 14.79477563644545 KAZEOSAT 2 1 40010U 14033A 26120.60535862 .00000873 00000+0 10709-3 0 9999 2 40010 97.5446 322.7245 0009992 111.3869 248.8414 14.85414827641898 HODOYOSHI-4 1 40011U 14033B 26120.56076019 .00001425 00000+0 16003-3 0 9996 2 40011 97.5457 307.6864 0025209 102.4744 257.9296 14.88013736641720 DEIMOS-2 1 40013U 14033D 26120.61923295 .00001793 00000+0 17508-3 0 9990 2 40013 97.5904 356.7678 0002423 94.6255 265.5242 14.93594073630626 HODOYOSHI-3 1 40015U 14033F 26120.42233223 .00001377 00000+0 16482-3 0 9994 2 40015 97.6372 285.4009 0033710 149.8175 210.4992 14.85280717640531 SPOT 7 1 40053U 14034A 26120.58098758 .00000704 00000+0 15315-3 0 9993 2 40053 98.0662 184.2935 0001508 78.2999 281.8371 14.60916501630186 SKYSAT-B 1 40072U 14037D 26120.44721630 .00001538 00000+0 17466-3 0 9999 2 40072 98.3804 76.7067 0006957 76.1801 284.0187 14.87899049638860 WORLDVIEW-3 (WV-3) 1 40115U 14048A 26120.59551657 .00000910 00000+0 11307-3 0 9996 2 40115 97.8576 196.0854 0002884 102.0555 258.0983 14.84940953634845 GAOFEN-2 1 40118U 14049A 26120.60792126 .00001335 00000+0 17980-3 0 9995 2 40118 98.0142 184.8550 0008199 36.7313 323.4459 14.80847580632197 YAOGAN-21 1 40143U 14053A 26120.62237270 .00008686 00000+0 34349-3 0 9998 2 40143 97.1518 162.9140 0006299 258.1279 101.9254 15.25681354647704 YAOGAN-22 1 40275U 14063A 26120.42561753 -.00000033 00000+0 35893-4 0 9994 2 40275 100.7650 270.9177 0005772 299.7922 60.2615 13.15529870553535 ASNARO 1 40298U 14070A 26120.54936544 .00010455 00000+0 49682-3 0 9992 2 40298 97.3470 197.9415 0002566 332.2625 27.8473 15.19390638636778 YAOGAN-24 1 40310U 14072A 26120.63419818 .00000945 00000+0 14420-3 0 9994 2 40310 98.1408 257.5898 0015111 58.9350 301.3340 14.76161078616708 CBERS 4 1 40336U 14079A 26120.63981436 .00000282 00000+0 11263-3 0 9995 2 40336 98.3391 178.9639 0001474 127.0858 233.0463 14.35546887597138 YAOGAN-26 1 40362U 14088A 26120.63627470 .00008351 00000+0 17615-3 0 9991 2 40362 97.0650 122.0267 0003415 184.5587 175.5632 15.45456523630351 SMAP 1 40376U 15003A 26120.55866517 .00000456 00000+0 97254-4 0 9998 2 40376 98.1293 128.3250 0001703 74.3067 285.8323 14.63396132600659 KOMPSAT-3A 1 40536U 15014A 26120.62171576 .00031886 00000+0 49888-3 0 9990 2 40536 97.6890 108.5905 0058311 352.7802 7.2603 15.51712076614433 SENTINEL-2A 1 40697U 15028A 26120.59230132 .00000447 00000+0 18729-3 0 9992 2 40697 98.5627 196.1216 0001287 84.6348 275.4982 14.30825924566925 GAOFEN-8 1 40701U 15030A 26120.61580531 .00021277 00000+0 46353-3 0 9993 2 40701 97.6921 311.1918 0009101 14.4929 345.6578 15.44254885604107 CARBONITE 1 (CBNT-1) 1 40718U 15032D 26120.56347693 .00001127 00000+0 14318-3 0 9995 2 40718 97.6492 300.6338 0015977 90.5905 269.7141 14.83434650582282 YAOGAN-27 1 40878U 15040A 26120.59155464 -.00000474 00000+0 -11377-2 0 9994 2 40878 100.1136 109.0441 0007925 329.3996 30.6655 13.16066546511408 GAOFEN-9 01 1 40894U 15047A 26120.62421801 .00000939 00000+0 12178-3 0 9999 2 40894 97.6319 158.4719 0025954 297.6554 62.2026 14.82796072573144 YAOGAN-28 1 41026U 15064A 26120.62003051 .00006692 00000+0 25633-3 0 9991 2 41026 97.3003 259.8925 0010679 7.7045 352.4356 15.26807758583422 YAOGAN-29 1 41038U 15069A 26120.61214721 .00000009 00000+0 77355-5 0 9992 2 41038 98.0068 149.1632 0001976 132.2363 227.9018 14.83043943563572 KENT RIDGE 1 1 41167U 15077B 26120.61603747 .00004276 00000+0 14560-3 0 9991 2 41167 14.9801 259.6889 0008359 288.1827 71.7585 15.22840908573830 GAOFEN-4 1 41194U 15083A 26120.57912251 -.00000332 00000+0 00000+0 0 9996 2 41194 0.3863 82.7529 0003226 132.2496 317.7066 1.00272437 38056 JASON-3 1 41240U 16002A 26120.62399998 -.00000036 00000+0 10508-3 0 9992 2 41240 66.0415 225.8304 0008083 274.5117 85.4978 12.87626397481123 SENTINEL-3A 1 41335U 16011A 26120.59836135 .00000004 00000+0 19713-4 0 9994 2 41335 98.6269 188.6596 0000976 99.6042 260.5248 14.26732358531279 ZIYUAN 3-02 (ZY 3-02) 1 41556U 16033A 26120.63628572 .00006159 00000+0 27747-3 0 9994 2 41556 97.3849 197.3177 0014212 100.9708 259.3127 15.21320527550752 CARTOSAT-2C 1 41599U 16040A 26120.63855118 .00006957 00000+0 33269-3 0 9999 2 41599 97.4521 181.2598 0008223 301.8537 58.1896 15.19282621546496 SKYSAT-C1 1 41601U 16040C 26120.06896210 .00009448 00000+0 27609-3 0 9997 2 41601 96.9608 154.4152 0002874 156.2827 203.8551 15.35482216550489 LAPAN-A3 1 41603U 16040E 26120.60475993 .00003919 00000+0 12595-3 0 9995 2 41603 97.1486 118.3273 0010336 175.3397 184.7944 15.32791975547523 GAOFEN-3 1 41727U 16049A 26120.62938162 .00000032 00000+0 22965-4 0 9991 2 41727 98.4025 129.1311 0001074 63.5228 296.6071 14.42226926511799 SKYSAT-C4 1 41771U 16058B 26120.55596699 .00016384 00000+0 32476-3 0 9991 2 41771 96.9207 144.3658 0003472 90.5382 269.6267 15.47102957538105 SKYSAT-C5 1 41772U 16058C 26120.61880194 .00007895 00000+0 24387-3 0 9994 2 41772 97.0516 163.3944 0004991 101.6753 258.5051 15.33777007536456 SKYSAT-C2 1 41773U 16058D 26120.61241695 .00012093 00000+0 29517-3 0 9998 2 41773 97.0202 144.5282 0002682 181.8607 178.2631 15.40990531537728 SKYSAT-C3 1 41774U 16058E 26120.60964553 .00021510 00000+0 37730-3 0 9993 2 41774 96.9077 153.3376 0002789 102.4858 257.6707 15.50563116538738 ALSAT-1B 1 41785U 16059C 26120.59729406 .00000368 00000+0 65703-4 0 9990 2 41785 97.7770 131.4138 0010082 27.4929 332.6811 14.72237291513572 PATHFINDER 1 1 41787U 16059E 26120.48010450 .00000763 00000+0 14168-3 0 9999 2 41787 97.8176 121.9106 0028490 1.5420 358.5868 14.67603987512712 SCATSAT 1 1 41790U 16059H 26120.60014226 .00001349 00000+0 18360-3 0 9991 2 41790 98.1218 183.8722 0055546 42.6827 317.8679 14.79421976 94551 GOKTURK 1A 1 41875U 16073A 26120.63667799 .00000405 00000+0 88530-4 0 9992 2 41875 98.1307 16.0439 0001378 83.0379 277.0980 14.62797009501876 RESOURCESAT-2A 1 41877U 16074A 26120.63297872 -.00000040 00000+0 17183-5 0 9999 2 41877 98.7542 194.5230 0001751 182.3435 177.7735 14.21600857487547 CARTOSAT-2D 1 41948U 17008A 26120.60547016 .00005345 00000+0 25626-3 0 9992 2 41948 97.4146 180.7889 0005565 61.2081 298.9712 15.19311942510357 SENTINEL-2B 1 42063U 17013A 26120.58509499 .00000342 00000+0 14728-3 0 9990 2 42063 98.5654 196.0324 0001238 89.3868 270.7457 14.30816435477831 CARTOSAT-2E 1 42767U 17036C 26120.62266615 .00005784 00000+0 27786-3 0 9994 2 42767 97.4315 181.1986 0004378 105.6011 254.5707 15.19213291490925 FORMOSAT-5 1 42920U 17049A 26120.53679701 .00000178 00000+0 56218-4 0 9998 2 42920 98.2258 196.9032 0010542 224.6437 135.3910 14.50879525459762 SENTINEL-5P 1 42969U 17064A 26120.55320176 .00000040 00000+0 40121-4 0 9993 2 42969 98.7946 63.0277 0001224 80.1693 279.9622 14.19510666442800 SKYSAT-C11 1 42987U 17068A 26120.35860668 .00029701 00000+0 43658-3 0 9992 2 42987 97.4291 267.2180 0001498 135.2699 224.8676 15.55434047475804 SKYSAT-C10 1 42988U 17068B 26120.35392716 .00010091 00000+0 31110-3 0 9999 2 42988 97.4433 256.7863 0001672 107.6285 252.5140 15.33795359475022 SKYSAT-C9 1 42989U 17068C 26120.64008772 .00013391 00000+0 33300-3 0 9997 2 42989 97.4358 257.5677 0007389 312.6748 47.3874 15.40390192475437 SKYSAT-C8 1 42990U 17068D 26120.65668841 .00011621 00000+0 33349-3 0 9996 2 42990 97.4449 256.7138 0001242 112.0801 248.0575 15.36022845475011 SKYSAT-C7 1 42991U 17068E 26120.64850693 .00011456 00000+0 32934-3 0 9999 2 42991 97.4463 257.6925 0004645 276.1698 83.9016 15.35963071475074 SKYSAT-C6 1 42992U 17068F 26120.65710770 .00010268 00000+0 31831-3 0 9997 2 42992 97.4496 257.8282 0001466 344.9233 15.1965 15.33616304475034 CARTOSAT-2F 1 43111U 18004A 26120.58846256 .00004988 00000+0 23942-3 0 9999 2 43111 97.4072 180.7826 0002426 89.3082 270.8430 15.19313271460105 GAOFEN-1 02 1 43259U 18031A 26120.58798640 .00000669 00000+0 10354-3 0 9990 2 43259 98.0560 183.2395 0003701 140.0543 220.0940 14.76450420435677 GAOFEN-1 03 1 43260U 18031B 26120.63393527 .00000748 00000+0 11503-3 0 9998 2 43260 98.0547 183.1486 0001945 190.7177 169.3992 14.76413863435679 GAOFEN-1 04 1 43262U 18031D 26120.60947519 .00001324 00000+0 19754-3 0 9990 2 43262 98.0562 183.3096 0000776 108.3649 251.7645 14.76474521435665 SENTINEL-3B 1 43437U 18039A 26120.43126783 .00000116 00000+0 66080-4 0 9998 2 43437 98.6267 188.6428 0001604 89.5670 270.5694 14.26734936417318 GAOFEN-5 01 1 43461U 18043A 26120.45008002 .00000361 00000+0 84325-4 0 9999 2 43461 98.4540 91.0446 0001125 181.8093 178.3103 14.60571222424725 GAOFEN-6 1 43484U 18048A 26120.63597334 .00000769 00000+0 11715-3 0 9994 2 43484 97.7791 185.0553 0011437 336.0663 24.0015 14.76575220426378 GAOFEN-11 01 1 43585U 18063A 26120.60471814 .00018906 00000+0 29454-3 0 9995 2 43585 97.1325 187.6606 0005195 132.8804 227.2887 15.53904084432952 ICESAT-2 1 43613U 18070A 26120.55169976 .00003140 00000+0 11398-3 0 9994 2 43613 92.0021 278.1280 0001720 70.3062 289.8372 15.28274215425185 HYSIS 1 43719U 18096A 26120.63921227 .00001328 00000+0 18823-3 0 9999 2 43719 97.9867 187.7539 0000792 88.6662 271.4640 14.78679197400395 KAZSTSAT 1 43783U 18099AB 26120.59506553 .00000584 00000+0 51761-4 0 9991 2 43783 97.4355 154.6788 0004345 184.9861 175.1320 14.99781871404172 SAUDISAT 5A 1 43831U 18102A 26120.61456657 .00005357 00000+0 20131-3 0 9991 2 43831 97.3103 183.1211 0008236 308.3064 51.7434 15.27557300408410 SAUDISAT 5B 1 43833U 18102C 26120.57632703 .00005162 00000+0 19242-3 0 9991 2 43833 97.3207 186.0673 0008980 310.6943 49.3516 15.27838996408528 GAOFEN-10R 1 44622U 19066A 26120.58624328 .00001282 00000+0 16471-3 0 9993 2 44622 98.0469 73.8317 0004343 301.4544 58.6244 14.82952255355320 CARTOSAT-3 1 44804U 19081A 26120.60362209 .00003461 00000+0 16691-3 0 9997 2 44804 97.4341 183.2263 0010829 323.0918 36.9571 15.19317856356248 GAOFEN-12 01 1 44819U 19082A 26120.63234396 .00000433 00000+0 63350-4 0 9993 2 44819 97.8123 128.2665 0001652 124.9087 235.2281 14.80418888347055 CSG-1 1 44873U 19092A 26120.59145088 .00000447 00000+0 62660-4 0 9996 2 44873 97.8887 304.8826 0001315 94.6539 265.4825 14.82158685344429 NEMO-HD 1 46277U 20061F 26120.62739671 .00010386 00000+0 23262-3 0 9992 2 46277 97.1957 183.0865 0001709 132.9131 227.2261 15.43626924314646 SENTINEL-6A 1 46984U 20086A 26120.61532684 -.00000073 00000+0 -53421-4 0 9993 2 46984 66.0414 233.8580 0007810 270.2513 89.7608 12.80930854254233 GAOFEN-12 02 1 48079U 21026A 26120.63836432 .00000430 00000+0 63494-4 0 9991 2 48079 97.9926 119.0161 0005721 42.1914 317.9737 14.80257289274722 PLEIADES NEO 3 1 48268U 21034A 26120.77782369 .00000546 00000+0 75953-4 0 9995 2 48268 97.8935 196.2253 0001372 102.9009 257.2357 14.81675220270638 PLEIADES NEO 4 1 49070U 21073E 26120.54145009 -.00000417 00000+0 -46372-4 0 9991 2 49070 97.8936 195.9882 0001328 91.2793 268.8572 14.81671991254311 LANDSAT 9 1 49260U 21088A 26120.19675571 .00000360 00000+0 89912-4 0 9993 2 49260 98.1869 191.1289 0001294 105.6508 254.4833 14.57123624244011 CSG-2 1 51444U 22008A 26120.62519845 .00000348 00000+0 50250-4 0 9991 2 51444 97.8881 304.9126 0001408 83.8753 276.2621 14.82155472229540 GAOFEN-12 03 1 52912U 22069A 26120.65909388 .00001137 00000+0 15721-3 0 9997 2 52912 97.8343 9.7160 0001049 46.4673 313.6627 14.79957331207581 SWOT 1 54754U 22173A 26120.61410694 .00000106 00000+0 73584-4 0 9999 2 54754 77.6081 99.5288 0000818 141.9647 218.1563 14.00171113172494 GAOFEN-12 04 1 57654U 23123A 26120.61419091 .00001063 00000+0 14693-3 0 9995 2 57654 97.9133 39.3165 0001317 91.6395 268.4968 14.80134113145596 PARS 1 1 59065U 24039Q 26120.58794186 .00011448 00000+0 24662-3 0 9992 2 59065 97.4802 100.0533 0007462 291.2689 68.7762 15.44741979121297 RESURS-P 4 1 59371U 24061A 26120.58177672 .00003326 00000+0 11062-3 0 9998 2 59371 97.2725 69.3301 0002335 55.7446 304.4017 15.31850609116471 LEGION 1 1 59625U 24081A 26120.52745664 .00003837 00000+0 19855-3 0 9993 2 59625 97.5027 198.8887 0010184 176.6097 183.5207 15.16793078110317 LEGION 2 1 59626U 24081B 26120.56038074 .00004674 00000+0 23944-3 0 9992 2 59626 97.5027 199.0121 0011708 150.9394 209.2493 15.17025055110328 ALOS-4 (DAICHI-4) 1 60182U 24123A 26120.61260231 .00001572 00000+0 21728-3 0 9998 2 60182 97.9211 218.4601 0001596 97.7244 262.4148 14.79473390 98847 LEGION 3 1 60452U 24146A 26120.61647493 .00004140 00000+0 22718-3 0 9996 2 60452 45.0016 285.6130 0009142 251.1161 108.8727 15.15685743 94802 LEGION 4 1 60453U 24146B 26120.55192909 .00003906 00000+0 21999-3 0 9996 2 60453 45.0030 17.8474 0010109 48.6683 311.5064 15.14884400 93646 SENTINEL-2C 1 60989U 24157A 26120.48025287 .00000114 00000+0 59956-4 0 9991 2 60989 98.5630 195.9395 0001518 99.8264 260.3091 14.30817638 86162 IONOSFERA-M 1 1 61735U 24199A 26120.65331200 .00000061 00000+0 46959-4 0 9991 2 61735 98.7238 354.3123 0000249 23.3188 336.8002 14.22745189120943 IONOSFERA-M 2 1 61736U 24199B 26120.61739083 .00000065 00000+0 48664-4 0 9998 2 61736 98.7237 354.1878 0001966 91.9587 268.1816 14.22748081124060 BIOMASS 1 63772U 25090A 26120.51042254 .00001085 00000+0 19985-3 0 9993 2 63772 98.0747 308.5157 0001418 89.2346 270.9021 14.67538788 53698 GOSAT-GW (IBUKI GW) 1 64694U 25141A 26120.59950404 -.00001021 00000+0 -17156-3 0 9997 2 64694 98.0554 58.6952 0001395 79.5664 280.5698 14.67554177 44869 IONOSFERA-M 3 1 64876U 25155A 26120.59250366 .00000052 00000+0 43218-4 0 9994 2 64876 98.5995 83.7053 0001796 38.5256 321.6050 14.21477960 39646 IONOSFERA-M 4 1 64877U 25155B 26120.62741442 .00000043 00000+0 39076-4 0 9996 2 64877 98.5995 83.6572 0001273 52.8495 307.2799 14.21479900 39642 MICROCARB 1 64899U 25156A 26120.64439658 .00000594 00000+0 10170-3 0 9990 2 64899 97.9835 198.6301 0017622 66.6963 293.6097 14.72274651 40976 CO3D 3 1 64900U 25156B 26118.55724756 .00004079 00000+0 19143-3 0 9997 2 64900 97.4329 197.9633 0001048 49.5521 310.5805 15.20201512 41996 CO3D 4 1 64901U 25156C 26118.49158032 .00002003 00000+0 95596-4 0 9991 2 64901 97.4326 197.8981 0002016 101.4971 258.6491 15.20211498 41988 CO3D 2 1 64902U 25156D 26118.58987872 .00004362 00000+0 20458-3 0 9998 2 64902 97.4327 197.8942 0000590 63.5253 296.6042 15.20192497 41995 CO3D 1 1 64903U 25156E 26103.64843334 .00003151 00000+0 12932-3 0 9997 2 64903 98.0928 182.3847 0110033 5.8142 354.4339 15.19681462 39726 SENTINEL-6B 1 66514U 25264A 26120.61567120 -.00000076 00000+0 -63638-4 0 9994 2 66514 66.0413 233.9835 0007973 269.6017 90.4085 12.80930727 21079 CSG-3 1 67304U 26001A 26120.46907405 .00000377 00000+0 53878-4 0 9996 2 67304 97.8883 304.7615 0001378 84.6941 275.4430 14.82148140 17390